Chester, CT

3:19 AM EDT on April 24, 2018 (GMT -0400)
Chester

Weather History for KSNC - November, 2013

Change the Weather History Date:

Sunday, November 24, 2013

  Actual Average (KHVN) Record (KHVN)
Temperature  
Mean Temperature 28 °F -  
Max Temperature 32 °F 48 °F 66 °F (1979)
Min Temperature 23 °F 34 °F 17 °F (1989)
Degree Days  
Heating Degree Days 38    
Moisture  
Dew Point 2 °F    
Average Humidity 37    
Maximum Humidity 59    
Minimum Humidity 25    
Precipitation  
Precipitation 0.01 in - - ()
Sea Level Pressure  
Sea Level Pressure 30.05 in    
Wind  
Wind Speed 15 mph (NW)    
Max Wind Speed 29 mph    
Max Gust Speed 47 mph    
Visibility 10 miles    
Events      
Averages and records for this station are not official NWS values.
T = Trace of Precipitation, MM = Missing Value Source: NWS Daily Summary

Daily Weather History Graph

Daily Weather History Graph

Search for Another Location

Airport or City:

Astronomy

Nov. 24, 2013 Rise Set
Actual Time 6:49 AM EST 4:24 PM EST
Civil Twilight 6:18 AM EST 4:54 PM EST
Nautical Twilight 5:44 AM EST 5:28 PM EST
Astronomical Twilight 5:11 AM EST 6:01 PM EST
Moon 10:49 PM EST 11:33 AM EST
Length of Visible Light 10h 35m
Length of Day
9h 34m
Waning Gibbous, 61% of the Moon is Illuminated
Nov 24
Waning Gibbous
Nov 25
Last Quarter
Dec 2
New
Dec 9
First Quarter
Dec 17
Full

Hourly Weather History & Observations

Time (EST) Temp. Windchill Dew Point Humidity Pressure Visibility Wind Dir Wind Speed Gust Speed Precip Events Conditions
12:15 AM 32.0 °F 22.5 °F 10.4 °F 41% 29.88 in 10.0 mi NW 12.7 mph 16.1 mph N/A   Mostly Cloudy
12:35 AM 32.0 °F 23.6 °F 15.8 °F 51% 29.89 in 10.0 mi NNW 10.4 mph 18.4 mph N/A   Overcast
12:55 AM 30.2 °F 20.2 °F 12.2 °F 47% 29.89 in 10.0 mi WNW 12.7 mph 25.3 mph 0.01 in   Mostly Cloudy
1:15 AM 30.2 °F 20.2 °F 8.6 °F 40% 29.89 in 10.0 mi NW 12.7 mph 18.4 mph N/A   Partly Cloudy
1:35 AM 28.4 °F 18.0 °F 8.6 °F 43% 29.90 in 10.0 mi NW 12.7 mph 23.0 mph N/A   Clear
1:55 AM 28.4 °F 18.0 °F 6.8 °F 40% 29.91 in 10.0 mi NW 12.7 mph 26.5 mph N/A   Clear
2:15 AM 28.4 °F 18.5 °F 8.6 °F 43% 29.91 in 7.0 mi NW 11.5 mph 29.9 mph N/A   Scattered Clouds
2:35 AM 28.4 °F 16.6 °F 6.8 °F 40% 29.91 in 10.0 mi NW 16.1 mph 28.8 mph N/A   Mostly Cloudy
2:55 AM 28.4 °F 17.0 °F 3.2 °F 34% 29.91 in 10.0 mi WNW 15.0 mph 25.3 mph N/A   Scattered Clouds
3:15 AM 26.6 °F 16.2 °F 3.2 °F 37% 29.91 in 10.0 mi WNW 11.5 mph 17.3 mph N/A   Scattered Clouds
3:35 AM 26.6 °F 14.7 °F 3.2 °F 37% 29.91 in 10.0 mi NW 15.0 mph 20.7 mph N/A   Partly Cloudy
3:55 AM 26.6 °F 13.8 °F 1.4 °F 34% 29.91 in 10.0 mi NW 17.3 mph 28.8 mph N/A   Clear
4:15 AM 26.6 °F 15.7 °F 1.4 °F 34% 29.92 in 10.0 mi NW 12.7 mph 28.8 mph N/A   Clear
4:35 AM 24.8 °F 12.9 °F 1.4 °F 36% 29.92 in 10.0 mi NW 13.8 mph 24.2 mph N/A   Clear
4:55 AM 24.8 °F 12.4 °F 1.4 °F 36% 29.92 in 10.0 mi NW 15.0 mph 26.5 mph N/A   Clear
5:15 AM 24.8 °F 15.3 °F 3.2 °F 40% 29.93 in 10.0 mi NW 9.2 mph 18.4 mph N/A   Clear
5:35 AM 23.0 °F 15.8 °F 3.2 °F 43% 29.93 in 10.0 mi WNW 5.8 mph 19.6 mph N/A   Clear
5:55 AM 23.0 °F 13.1 °F 5.0 °F 46% 29.94 in 10.0 mi WNW 9.2 mph - N/A   Partly Cloudy
6:15 AM 23.0 °F 13.9 °F 5.0 °F 46% 29.94 in 10.0 mi NW 8.1 mph - N/A   Scattered Clouds
6:35 AM 23.0 °F 12.4 °F 5.0 °F 46% 29.95 in 10.0 mi WNW 10.4 mph 16.1 mph N/A   Scattered Clouds
6:55 AM 23.0 °F 11.1 °F 5.0 °F 46% 29.95 in 10.0 mi NW 12.7 mph 27.6 mph N/A   Partly Cloudy
7:15 AM 23.0 °F 10.1 °F 5.0 °F 46% 29.96 in 10.0 mi NNW 15.0 mph 29.9 mph N/A   Partly Cloudy
7:35 AM 23.0 °F 10.1 °F 5.0 °F 46% 29.97 in 10.0 mi NW 15.0 mph 28.8 mph N/A   Partly Cloudy
7:55 AM 23.0 °F 9.2 °F 1.4 °F 39% 29.97 in 10.0 mi NW 17.3 mph 36.8 mph N/A   Clear
8:15 AM 23.0 °F 10.1 °F 3.2 °F 43% 29.97 in 10.0 mi WNW 15.0 mph 27.6 mph N/A   Clear
8:35 AM 23.0 °F 9.2 °F 1.4 °F 39% 29.98 in 10.0 mi NW 17.3 mph 34.5 mph N/A   Clear
8:55 AM 23.0 °F 9.6 °F 3.2 °F 43% 30.00 in 10.0 mi NW 16.1 mph 33.4 mph N/A   Clear
9:15 AM 23.0 °F 8.3 °F 1.4 °F 39% 30.00 in 10.0 mi NW 19.6 mph 25.3 mph N/A   Clear
9:35 AM 23.0 °F 8.3 °F 1.4 °F 39% 30.01 in 10.0 mi NNW 19.6 mph 29.9 mph N/A   Clear
9:55 AM 23.0 °F 8.3 °F 1.4 °F 39% 30.01 in 10.0 mi NNW 19.6 mph 31.1 mph N/A   Clear
10:15 AM 26.6 °F 12.4 °F 1.4 °F 34% 30.01 in 10.0 mi NW 21.9 mph 27.6 mph N/A   Clear
10:35 AM 24.8 °F 8.7 °F -0.4 °F 34% 30.00 in 10.0 mi NNW 26.5 mph 41.4 mph N/A   Clear
10:55 AM 24.8 °F 11.1 °F -0.4 °F 34% 30.00 in 10.0 mi NW 18.4 mph 35.7 mph N/A   Clear
11:15 AM 26.6 °F 13.1 °F -0.4 °F 31% 30.00 in 10.0 mi NW 19.6 mph 33.4 mph N/A   Clear
11:35 AM 24.8 °F 10.0 °F -2.2 °F 31% 30.01 in 10.0 mi NNW 21.9 mph 33.4 mph N/A   Clear
11:55 AM 26.6 °F 11.7 °F -0.4 °F 31% 30.01 in 10.0 mi North 24.2 mph 34.5 mph N/A   Clear
12:15 PM 26.6 °F 11.7 °F -4.0 °F 26% 30.01 in 10.0 mi NNW 24.2 mph 34.5 mph N/A   Clear
12:35 PM 26.6 °F 11.7 °F -4.0 °F 26% 30.01 in 10.0 mi NW 24.2 mph 43.7 mph N/A   Clear
12:55 PM 26.6 °F 11.4 °F -4.0 °F 26% 30.01 in 10.0 mi NNW 25.3 mph 36.8 mph N/A   Clear
1:15 PM 28.4 °F 15.4 °F -4.0 °F 25% 30.02 in 10.0 mi NNW 19.6 mph 32.2 mph N/A   Clear
1:35 PM 26.6 °F 10.6 °F -4.0 °F 26% 30.02 in 10.0 mi NNW 28.8 mph 47.2 mph N/A   Clear
1:55 PM 28.4 °F 14.4 °F -4.0 °F 25% 30.03 in 10.0 mi NNW 23.0 mph 36.8 mph N/A   Clear
2:15 PM 28.4 °F 15.4 °F -4.0 °F 25% 30.04 in 10.0 mi NW 19.6 mph 38.0 mph N/A   Clear
2:35 PM 28.4 °F 15.8 °F -4.0 °F 25% 30.06 in 10.0 mi NNW 18.4 mph 31.1 mph N/A   Clear
2:55 PM 28.4 °F 16.2 °F -4.0 °F 25% 30.07 in 10.0 mi NW 17.3 mph 31.1 mph N/A   Clear
3:15 PM 28.4 °F 14.4 °F -4.0 °F 25% 30.08 in 10.0 mi NW 23.0 mph 36.8 mph N/A   Clear
3:35 PM 28.4 °F 14.4 °F -4.0 °F 25% 30.10 in 10.0 mi NNW 23.0 mph 34.5 mph N/A   Clear
3:55 PM 26.6 °F 11.7 °F -4.0 °F 26% 30.12 in 10.0 mi NW 24.2 mph 39.1 mph N/A   Clear
4:15 PM 26.6 °F 12.4 °F -2.2 °F 29% 30.13 in 10.0 mi NW 21.9 mph 29.9 mph N/A   Clear
4:35 PM 26.6 °F 11.1 °F -4.0 °F 26% 30.14 in 10.0 mi NW 26.5 mph 41.4 mph N/A   Clear
4:55 PM 26.6 °F 12.0 °F -4.0 °F 26% 30.15 in 10.0 mi NW 23.0 mph 38.0 mph N/A   Clear
5:15 PM 26.6 °F 13.8 °F -4.0 °F 26% 30.16 in 10.0 mi NNW 17.3 mph 36.8 mph N/A   Clear
5:35 PM 26.6 °F 14.7 °F -4.0 °F 26% 30.17 in 10.0 mi NW 15.0 mph 26.5 mph N/A   Clear
5:55 PM 26.6 °F 16.2 °F -2.2 °F 29% 30.18 in 10.0 mi NNW 11.5 mph 23.0 mph N/A   Clear
6:15 PM 24.8 °F 14.0 °F -0.4 °F 34% 30.18 in 10.0 mi NW 11.5 mph 24.2 mph N/A   Clear
6:35 PM 24.8 °F 14.0 °F -2.2 °F 31% 30.19 in 10.0 mi NW 11.5 mph 23.0 mph N/A   Clear
6:55 PM 26.6 °F 15.7 °F -2.2 °F 29% 30.20 in 10.0 mi NW 12.7 mph 21.9 mph N/A   Clear
7:15 PM 24.8 °F 13.4 °F -0.4 °F 34% 30.20 in 10.0 mi WNW 12.7 mph 20.7 mph N/A   Clear
7:35 PM 24.8 °F 14.0 °F -0.4 °F 34% 30.21 in 10.0 mi NW 11.5 mph 28.8 mph N/A   Clear
7:55 PM 24.8 °F 12.9 °F 1.4 °F 36% 30.21 in 10.0 mi NW 13.8 mph 21.9 mph N/A   Clear
8:15 PM 24.8 °F 14.6 °F 1.4 °F 36% 30.22 in 10.0 mi WNW 10.4 mph 21.9 mph N/A   Clear
8:35 PM 24.8 °F 14.0 °F 1.4 °F 36% 30.22 in 10.0 mi NW 11.5 mph 18.4 mph N/A   Clear
8:55 PM 24.8 °F 12.4 °F 3.2 °F 40% 30.22 in 10.0 mi NW 15.0 mph 23.0 mph N/A   Clear
9:15 PM 24.8 °F 13.4 °F 5.0 °F 43% 30.22 in 10.0 mi WNW 12.7 mph 18.4 mph N/A   Clear
9:35 PM 23.0 °F 13.1 °F 5.0 °F 46% 30.23 in 10.0 mi NW 9.2 mph 23.0 mph N/A   Clear
9:55 PM 23.0 °F 9.6 °F 6.8 °F 50% 30.23 in 10.0 mi WNW 16.1 mph 25.3 mph N/A   Clear
10:15 PM 23.0 °F 10.6 °F 8.6 °F 54% 30.25 in 10.0 mi NW 13.8 mph 28.8 mph N/A   Clear
10:35 PM 23.0 °F 10.1 °F 8.6 °F 54% 30.24 in 10.0 mi NW 15.0 mph 25.3 mph N/A   Clear
10:55 PM 23.0 °F 10.6 °F 8.6 °F 54% 30.25 in 10.0 mi WNW 13.8 mph 21.9 mph N/A   Clear
11:15 PM 23.0 °F 13.1 °F 8.6 °F 54% 30.26 in 10.0 mi NW 9.2 mph 20.7 mph N/A   Clear
11:35 PM 23.0 °F 15.8 °F 10.4 °F 59% 30.26 in 10.0 mi WNW 5.8 mph - N/A   Clear
11:55 PM 23.0 °F 12.4 °F 10.4 °F 59% 30.27 in 10.0 mi NW 10.4 mph 18.4 mph N/A   Clear